Simultaneous Nadir Overpasses (SNOs) Predictions

Prediction of SNOs near equator between AQUA and NPP Satellite Orbit:

Table of predicted SNOs near equator for the next 14.0 days since TLE Epoch: 9/27/2014
Index Date (AQUA) Time (AQUA) AQUA Lat,Lon Date (NPP) Time (NPP) NPP Lat,Lon Distance(km) Time Diff (sec)
1 09/29/2014 04:41:57 -29.98, -51.34 09/29/2014 04:35:04 -30.13, -50.49 83.24 413
2 09/29/2014 05:31:27 29.95, 116.29 09/29/2014 05:25:52 30.07, 116.82 52.60 335
3 09/29/2014 06:20:50 -29.98, -76.06 09/29/2014 06:16:32 -30.02, -75.84 22.05 258
4 09/29/2014 07:08:39 23.87, 93.09 09/29/2014 07:05:36 23.87, 93.09 0.61 183
5 09/29/2014 07:50:11 4.51, -93.00 09/29/2014 07:48:13 4.52, -92.99 1.25 118
6 09/29/2014 08:33:29 -26.99, 79.72 09/29/2014 08:32:39 -27.00, 79.68 3.46 50
7 09/29/2014 09:22:03 29.91,-111.88 09/29/2014 09:22:29 29.98,-112.18 29.97 26
8 09/29/2014 10:11:33 -29.94, 55.75 09/29/2014 10:13:16 -30.09, 55.14 60.62 103
9 09/29/2014 11:00:56 29.92,-136.60 09/29/2014 11:03:57 30.09,-137.53 91.18 181
10 10/01/2014 20:58:25 -29.98, 64.54 10/01/2014 20:52:00 -30.14, 65.28 72.97 385
11 10/01/2014 21:47:55 29.96,-127.83 10/01/2014 21:42:47 30.03,-127.39 42.39 308
12 10/01/2014 22:37:18 -29.98, 39.82 10/01/2014 22:33:27 -29.97, 39.95 12.16 231
13 10/01/2014 23:22:52 15.73,-149.14 10/01/2014 23:20:13 15.73,-149.15 1.20 159
14 10/02/2014 00:04:21 12.79, 24.67 10/02/2014 00:02:47 12.79, 24.67 0.20 94
15 10/02/2014 00:49:29 -28.61,-163.99 10/02/2014 00:49:06 -28.62,-164.11 11.73 23
16 10/02/2014 01:38:30 29.91, 4.00 10/02/2014 01:39:23 30.02, 3.60 40.35 53
17 10/02/2014 02:28:00 -29.93, 171.63 10/02/2014 02:30:11 -30.07, 170.91 70.85 131
18 10/04/2014 12:25:28 29.95, 12.78 10/04/2014 12:18:14 30.16, 13.72 92.97 434
19 10/04/2014 13:14:51 -29.97,-179.57 10/04/2014 13:08:54 -30.11,-178.94 62.42 357
20 10/04/2014 14:04:21 29.95, -11.94 10/04/2014 13:59:41 29.99, -11.61 31.94 280
21 10/04/2014 14:53:44 -29.97, 155.71 10/04/2014 14:50:22 -29.99, 155.72 2.80 202
22 10/04/2014 15:36:36 5.94, -31.11 10/04/2014 15:34:21 5.94, -31.12 0.78 135
23 10/04/2014 16:18:07 22.51, 142.77 10/04/2014 16:16:57 22.51, 142.78 0.88 70
24 10/04/2014 17:05:34 -29.94, -47.76 10/04/2014 17:05:38 -30.00, -47.96 20.40 4
25 10/04/2014 17:54:57 29.91, 119.89 10/04/2014 17:56:19 30.00, 119.37 50.89 82
26 10/04/2014 18:44:27 -29.94, -72.48 10/04/2014 18:47:06 -30.11, -73.30 81.42 159
27 10/07/2014 04:41:54 29.94, 128.68 10/07/2014 04:35:09 30.13, 129.50 82.17 405
28 10/07/2014 05:31:17 -29.96, -63.67 10/07/2014 05:25:49 -30.07, -63.15 51.60 328
29 10/07/2014 06:20:47 29.94, 103.96 10/07/2014 06:16:36 29.96, 104.17 21.09 251
30 10/07/2014 07:07:53 -21.73, -86.36 10/07/2014 07:04:56 -21.73, -86.34 1.28 177
31 10/07/2014 07:49:53 -5.49, 87.21 10/07/2014 07:48:02 -5.49, 87.22 1.08 111
32 10/07/2014 08:33:12 27.39,-100.14 10/07/2014 08:32:29 27.40,-100.18 4.00 43
33 10/07/2014 09:22:01 -29.88, 68.12 10/07/2014 09:22:34 -29.97, 67.81 31.31 33
34 10/07/2014 10:11:23 29.92,-124.22 10/07/2014 10:13:14 30.02,-124.85 61.75 111
35 10/07/2014 11:00:54 -29.88, 43.40 10/07/2014 11:04:02 -30.08, 42.47 92.42 188
36 10/09/2014 20:58:20 29.98,-115.44 10/09/2014 20:52:04 30.11,-114.72 70.94 376
37 10/09/2014 21:47:43 -30.00, 52.21 10/09/2014 21:42:45 -30.11, 52.61 40.45 298
38 10/09/2014 22:37:13 29.99,-140.16 10/09/2014 22:33:32 30.00,-140.06 9.72 221
39 10/09/2014 23:21:52 -12.91, 31.54 10/09/2014 23:19:21 -12.91, 31.55 0.40 151
40 10/10/2014 00:03:50 -14.44,-154.95 10/10/2014 00:02:25 -14.44,-154.95 0.45 85
41 10/10/2014 00:49:08 29.15, 16.20 10/10/201
